This is the latest recevied weather packets stored in our database for station/object K6CED. If no packets are shown the sender has not sent any weather packets the latest 10 day(s).
| Time | Temp. | Humidity | Pressure | Rain* | Wind** | Luminosity | Snow |
|---|---|---|---|---|---|---|---|
| 1778124663 | 16.67° C | 68% | 1019.1 hPa | 0 mm | - | 0 W/m² | - |
| 1778124360 | 16.67° C | 68% | 1019 hPa | 0 mm | - | 0 W/m² | - |
| 1778124056 | 16.67° C | 67% | 1019 hPa | 0 mm | - | 0 W/m² | - |
| 1778123752 | 16.67° C | 67% | 1019.1 hPa | 0 mm | - | 0 W/m² | - |
| 1778123450 | 17.22° C | 67% | 1018.9 hPa | 0 mm | - | 0 W/m² | - |
| 1778123146 | 17.22° C | 66% | 1018.7 hPa | 0 mm | - | 0 W/m² | - |
| 1778122844 | 17.22° C | 66% | 1018.8 hPa | 0 mm | - | 0 W/m² | - |
| 1778122541 | 17.78° C | 66% | 1018.7 hPa | 0 mm | - | 0 W/m² | - |
| 1778122239 | 17.78° C | 66% | 1018.7 hPa | 0 mm | - | 0 W/m² | - |
| 1778121936 | 17.78° C | 66% | 1018.6 hPa | 0 mm | - | 1 W/m² | - |
| 1778121633 | 17.78° C | 65% | 1018.7 hPa | 0 mm | - | 2 W/m² | - |
| 1778121328 | 18.33° C | 66% | 1018.4 hPa | 0 mm | - | 4 W/m² | - |
| 1778121027 | 18.33° C | 65% | 1018.4 hPa | 0 mm | - | 7 W/m² | - |
| 1778120723 | 18.89° C | 65% | 1018.4 hPa | 0 mm | - | 10 W/m² | - |
| 1778120418 | 18.89° C | 64% | 1018.4 hPa | 0 mm | - | 14 W/m² | - |
| 1778120114 | 18.89° C | 64% | 1018.3 hPa | 0 mm | - | 17 W/m² | - |
| 1778119811 | 19.44° C | 64% | 1018.3 hPa | 0 mm | - | 21 W/m² | - |
| 1778119509 | 19.44° C | 64% | 1018.4 hPa | 0 mm | - | 25 W/m² | - |
| 1778119205 | 19.44° C | 63% | 1018.2 hPa | 0 mm | - | 28 W/m² | - |
| 1778118904 | 19.44° C | 63% | 1018.1 hPa | 0 mm | - | 31 W/m² | - |
| 1778118601 | 20° C | 63% | 1018.1 hPa | 0 mm | - | 34 W/m² | - |
| 1778118297 | 20° C | 62% | 1017.9 hPa | 0 mm | - | 38 W/m² | - |
| 1778117993 | 20° C | 62% | 1018 hPa | 0 mm | - | 46 W/m² | - |
| 1778117690 | 20.56° C | 61% | 1017.9 hPa | 0 mm | - | 57 W/m² | - |
| 1778117387 | 21.11° C | 59% | 1018 hPa | 0 mm | - | 70 W/m² | - |
* Rain latest hour (hover to see other rain measurements)
** Current wind speed in m/s (hover to see current wind gust speed)